Theta_e
313 311 310 310 308 308 307 307 306 303 304 307 294 293 294 294 294 293 293 295 300 304 306 308 308 308 308 308 307 307 306 304 303 301 301 300 299 298
314 313 311 311 311 308 308 307 307 306 303 309 309 298 294 294 293 292 292 293 296 300 303 305 306 307 307 307 306 305 305 304 302 301 301 300 300 300
316 314 313 312 312 311 310 308 307 306 303 306 309 309 294 294 293 293 293 292 293 296 300 303 305 304 305 305 303 303 303 302 302 301 301 301 300 300
316 316 314 314 313 313 312 309 308 308 306 304 307 307 301 296 297 292 292 292 292 294 298 301 303 302 302 302 301 300 300 301 301 301 301 301 301 300
308 312 314 315 314 314 313 312 310 309 308 306 306 308 306 291 290 289 290 290 291 293 297 299 301 301 301 300 299 298 298 299 300 300 300 300 300 299
302 302 301 300 298 298 300 304 309 308 307 304 304 304 299 287 289 287 286 288 288 289 294 296 299 298 299 299 298 296 296 298 298 299 298 298 298 298
296 296 296 291 290 292 295 295 296 297 299 301 301 300 291 285 287 288 290 286 285 288 290 293 295 295 295 297 295 294 296 297 297 297 296 296 296 296
290 291 291 289 291 291 291 292 293 292 292 292 294 295 295 288 286 287 286 283 281 285 288 289 293 291 292 293 294 295 296 296 296 295 295 295 295 294
288 288 288 289 288 288 289 290 289 291 293 292 290 291 292 290 288 287 287 286 286 284 287 285 287 287 290 291 294 295 295 294 294 294 294 294 294 293
287 287 287 287 288 288 288 287 288 288 288 289 289 290 291 292 290 290 288 287 283 284 287 283 283 282 284 288 294 294 294 293 293 293 293 293 292 291
286 287 286 287 288 290 288 286 287 287 289 291 292 292 292 293 293 287 286 284 279 280 283 279 280 277 280 284 290 293 293 293 293 293 292 291 290 290
285 286 286 287 288 289 287 286 285 286 287 287 287 287 288 288 290 290 287 285 278 279 281 277 278 278 275 277 282 287 289 292 291 291 290 290 290 282
284 284 285 287 288 288 288 286 286 287 286 285 284 283 285 286 286 286 286 287 281 280 281 280 280 278 276 274 276 282 284 285 285 288 290 290 287 283
282 284 284 286 286 286 285 287 287 285 283 282 278 278 278 281 281 283 284 284 283 282 283 282 280 278 275 275 274 277 279 281 283 282 284 286 286 284
280 281 282 284 284 282 283 284 282 282 281 277 274 273 273 277 280 280 280 279 279 280 281 281 282 278 280 277 275 275 276 276 279 278 278 277 277 277
277 275 277 279 280 280 279 280 278 276 275 275 272 273 275 275 278 279 277 277 276 275 279 281 281 280 278 278 278 277 275 273 275 275 274 274 274 274
268 267 270 270 271 272 274 276 276 277 277 274 272 273 274 274 276 277 277 276 274 273 274 276 278 278 279 279 275 275 273 273 273 273 272 270 271 272
263 264 266 266 267 268 270 272 275 277 277 276 272 272 274 274 273 274 275 274 273 273 273 274 275 274 274 274 277 273 273 272 272 272 271 269 268 270
264 263 263 264 265 267 268 269 271 272 273 273 271 273 276 275 274 274 273 274 273 273 274 275 276 274 270 267 272 276 271 271 270 269 269 269 268 268
259 260 262 263 264 265 267 268 268 270 271 273 274 275 276 275 273 272 273 272 272 271 270 271 271 272 271 269 268 271 276 271 270 267 266 267 270 273
257 259 261 262 262 263 265 266 265 266 268 269 271 273 274 273 272 272 272 271 271 270 267 267 270 273 273 273 268 268 271 275 272 268 268 266 265 266
254 257 260 259 261 262 263 264 265 266 266 266 268 269 272 273 272 271 271 269 268 268 267 268 270 271 271 269 266 266 267 270 274 274 273 270 267 264
254 254 257 258 259 259 261 263 263 263 264 263 265 266 269 269 271 270 269 269 269 268 268 267 268 269 268 268 267 266 266 265 266 267 267 274 274 274
Wind_Speed
13 13 12 10 9 10 10 11 12 11 12 10 5 9 9 9 15 14 16 23 30 31 29 27 28 27 24 24 23 20 18 16 16 16 14 13 12 10
10 13 13 11 12 10 12 11 11 13 14 8 10 8 10 9 11 13 15 19 25 30 31 31 28 28 25 24 24 20 19 18 18 17 16 15 14 13
13 13 15 16 12 11 10 10 12 12 14 11 12 12 7 11 9 12 12 13 13 24 29 29 25 25 24 24 24 21 21 20 20 19 18 17 16 14
14 14 15 11 13 13 9 14 13 14 12 18 13 11 11 9 10 9 8 8 10 13 22 24 25 26 24 24 24 22 21 21 20 20 19 19 16 14
10 9 9 11 13 11 13 13 13 13 13 13 15 9 8 3 3 3 6 8 7 14 22 28 28 29 29 27 26 23 22 19 18 18 16 16 15 14
6 7 7 8 9 9 7 8 9 9 9 10 12 11 6 2 3 3 4 5 7 7 15 20 26 29 32 29 27 25 24 21 19 15 12 12 11 13
7 8 7 7 7 8 6 8 7 7 7 7 9 8 3 2 5 4 8 4 4 5 8 11 12 14 17 25 21 26 25 23 20 15 12 11 10 9
8 9 9 8 12 12 10 10 8 8 8 4 7 7 6 4 3 3 3 3 4 6 11 12 12 13 12 14 24 27 26 24 21 16 14 13 12 11
8 7 8 6 7 8 11 12 9 10 9 8 10 9 9 4 4 6 8 6 4 3 8 6 6 9 9 11 27 29 27 24 22 20 18 16 14 13
8 8 8 9 9 12 12 12 12 9 6 6 7 10 11 10 8 6 8 5 3 3 9 5 4 2 4 7 28 27 25 24 22 21 20 17 15 14
6 7 8 9 16 19 10 10 11 10 7 13 16 18 19 19 15 3 6 7 2 2 4 4 3 3 2 5 11 25 24 23 22 21 18 17 16 15
9 10 14 17 21 20 10 9 9 10 10 10 9 11 12 11 16 12 7 9 4 2 4 4 4 5 3 2 3 8 10 20 20 19 18 18 18 6
9 9 8 22 20 20 18 11 12 11 11 8 9 7 7 8 5 1 2 3 5 2 7 5 6 5 3 5 2 5 9 9 7 12 19 18 19 14
9 7 10 20 19 19 14 20 18 12 7 7 7 5 7 6 6 4 3 3 3 3 11 6 5 8 5 5 6 3 7 7 7 6 7 17 20 18
7 14 19 19 18 13 19 20 13 9 8 6 4 4 4 4 5 3 7 10 11 8 3 3 7 8 8 7 8 6 9 4 8 9 9 8 7 6
11 8 12 14 16 14 9 10 7 6 5 4 4 3 4 4 5 4 3 5 7 6 9 8 10 9 5 8 11 9 9 6 8 9 9 8 7 5
5 4 8 8 9 10 10 9 8 9 9 5 4 4 4 4 4 4 4 4 6 3 6 8 11 12 9 10 10 9 9 10 9 10 11 8 5 5
4 5 6 7 8 8 9 9 8 10 9 6 4 4 4 4 4 5 6 6 7 6 7 6 10 12 10 13 13 9 9 9 8 9 9 8 4 3
5 5 5 6 6 7 7 7 8 8 8 6 4 4 4 4 5 5 5 6 7 6 5 4 2 7 9 6 4 10 9 7 8 8 6 3 4 3
3 4 5 6 6 6 7 7 8 7 7 7 6 6 6 5 5 6 6 6 7 6 8 8 8 7 7 5 6 5 11 11 8 6 4 3 7 8
3 4 4 5 5 6 6 7 6 6 6 5 6 6 6 4 6 6 7 9 9 7 8 8 7 9 9 8 9 7 7 14 8 6 5 5 3 2
2 3 4 4 4 5 5 5 6 7 6 5 5 5 6 6 6 7 6 7 7 7 7 5 6 6 5 8 9 8 5 6 14 16 10 5 4 5
4 3 4 4 4 3 3 5 6 5 5 4 4 5 5 6 6 7 7 7 7 6 5 5 6 7 8 7 9 6 10 6 3 6 5 10 7 12
Wind_Direction
219 223 219 221 219 223 224 226 238 261 258 258 238 204 217 221 228 217 220 223 220 220 219 215 210 205 207 206 193 200 208 203 210 209 200 196 190 186
222 224 225 227 227 217 226 230 233 246 262 246 248 211 203 217 226 216 224 227 228 224 216 214 208 203 200 198 192 193 204 206 209 210 206 201 197 195
228 227 232 230 233 227 225 232 239 236 252 253 254 256 201 218 223 217 221 222 231 227 224 213 205 199 195 192 188 183 205 208 209 209 207 206 203 198
231 230 237 233 238 241 232 231 235 236 243 260 250 250 233 217 232 219 218 224 227 229 221 216 199 194 189 187 188 179 208 208 209 212 209 210 208 204
7 332 298 262 239 241 238 244 237 237 236 249 257 250 244 159 193 200 195 215 214 205 209 207 202 193 182 184 183 179 207 211 206 215 213 213 209 204
21 17 7 5 350 337 336 325 288 260 249 247 256 257 234 181 177 177 211 200 206 196 208 207 198 198 192 185 185 183 198 204 203 206 205 204 205 204
10 15 8 347 334 340 338 333 322 316 311 281 267 263 230 200 207 197 229 169 193 182 201 207 198 193 194 196 185 186 195 197 198 189 179 183 185 194
4 358 1 352 351 344 339 321 309 308 298 286 286 278 264 214 199 183 154 154 217 204 194 204 195 197 192 192 185 185 194 189 190 186 185 184 184 187
8 353 349 352 336 337 334 330 320 296 275 285 285 278 284 239 190 189 204 203 202 163 189 188 191 196 190 186 180 184 186 181 185 188 193 190 190 184
359 346 341 337 341 338 331 330 328 325 302 292 279 286 283 284 231 220 212 185 59 138 171 170 169 133 149 175 174 178 177 176 181 188 188 186 185 178
348 347 347 341 335 337 332 323 318 319 302 290 289 294 293 286 269 185 184 171 159 174 164 119 138 101 61 163 170 173 171 174 177 177 176 179 181 177
6 4 356 355 352 354 349 334 328 325 320 324 321 315 308 296 289 215 188 191 132 128 171 104 134 128 103 358 133 153 160 159 152 159 168 177 171 117
0 354 351 355 359 3 6 360 350 342 338 334 329 322 325 332 327 330 187 204 159 134 168 119 158 130 86 132 61 132 135 144 144 161 164 165 145 135
358 349 347 359 3 4 7 1 353 349 337 336 335 329 333 343 346 352 62 56 73 135 167 139 144 158 137 131 133 114 106 114 125 129 136 136 132 135
4 9 3 1 358 356 359 2 359 355 354 350 345 320 307 316 335 356 59 72 61 43 97 102 137 131 147 142 141 134 130 101 117 115 106 103 109 119
12 8 11 8 10 0 348 1 353 346 337 335 315 302 324 346 2 10 25 64 75 51 41 87 120 130 110 128 138 134 131 134 125 113 106 96 91 87
359 5 15 9 5 356 350 356 353 356 354 344 345 354 351 356 10 14 17 27 67 63 73 76 78 75 72 122 119 122 117 108 111 117 109 101 79 104
30 21 11 3 4 357 345 343 350 358 352 344 352 352 11 18 12 28 54 55 73 76 84 94 103 100 83 55 52 109 106 109 113 108 114 112 98 77
48 22 17 5 345 344 342 337 342 342 331 349 346 351 2 33 32 37 44 76 65 55 49 16 38 112 101 91 67 67 112 111 112 89 88 69 126 129
32 11 0 349 342 346 349 341 337 338 355 349 357 357 26 23 53 51 47 63 70 61 54 39 36 48 102 121 112 84 111 119 112 98 92 76 88 113
350 356 350 350 343 336 340 340 330 338 346 355 2 11 15 23 49 62 66 66 70 65 67 60 50 83 103 88 87 83 71 90 100 117 121 97 92 92
325 336 338 329 339 336 333 342 348 356 350 2 1 25 25 28 43 50 53 66 61 67 70 43 26 42 58 101 100 98 87 74 95 100 99 121 153 165
329 327 326 327 322 312 329 6 6 341 332 349 15 23 36 48 49 61 68 67 76 69 57 61 48 51 66 88 101 92 102 80 76 91 43 56 94 94